| time (UTC) | temp F | wind direction | speed MPH | gust MPH | rain 1hr in | rain 24hr in | rain mn in | humidity % | barometer mb |
| 20260902130403 | 75 | 50 | 7.0 | 12.0 | 0.00 | 0.00 | 0.00 | 79 | 1022.3 |
| 20260902125904 | 74 | 5 | 3.0 | 9.0 | 0.00 | 0.00 | 0.00 | 79 | 1022.3 |
| 20260902125404 | 74 | 37 | 3.0 | 12.0 | 0.00 | 0.00 | 0.00 | 79 | 1022.4 |
| 20260902124904 | 74 | 5 | 5.0 | 12.0 | 0.00 | 0.00 | 0.00 | 79 | 1022.4 |
| 20260902124404 | 74 | 19 | 8.0 | 13.0 | 0.00 | 0.00 | 0.00 | 79 | 1022.5 |
| 20260902123404 | 75 | 1 | 5.0 | 9.0 | 0.00 | 0.00 | 0.00 | 78 | 1022.5 |
| 20260902122904 | 75 | 10 | 6.0 | 12.0 | 0.00 | 0.00 | 0.00 | 79 | 1022.4 |
| 20260902122404 | 74 | 57 | 3.0 | 8.0 | 0.00 | 0.00 | 0.00 | 80 | 1022.4 |
| 20260902121904 | 74 | 28 | 6.0 | 13.0 | 0.00 | 0.00 | 0.00 | 79 | 1022.4 |
| 20260902121403 | 74 | 20 | 7.0 | 12.0 | 0.00 | 0.00 | 0.00 | 79 | 1022.4 |
| 20260902120405 | 75 | 15 | 4.0 | 9.0 | 0.00 | 0.00 | 0.00 | 79 | 1022.5 |
| 20260902115904 | 75 | 4 | 4.0 | 12.0 | 0.00 | 0.00 | 0.00 | 79 | 1022.5 |
| 20260902115404 | 74 | 354 | 2.0 | 5.0 | 0.00 | 0.00 | 0.00 | 79 | 1022.5 |
| 20260902114904 | 74 | 287 | 1.0 | 9.0 | 0.00 | 0.00 | 0.00 | 79 | 1022.5 |
| 20260902114405 | 74 | 323 | 2.0 | 9.0 | 0.00 | 0.00 | 0.00 | 79 | 1022.5 |
| 20260902113404 | 74 | 343 | 1.0 | 3.0 | 0.00 | 0.00 | 0.00 | 80 | 1022.5 |
| 20260902112903 | 74 | 329 | 1.0 | 9.0 | 0.00 | 0.00 | 0.00 | 80 | 1022.6 |
| 20260902112404 | 74 | 352 | 3.0 | 8.0 | 0.00 | 0.00 | 0.00 | 81 | 1022.6 |
| 20260902111904 | 73 | 67 | 1.0 | 3.0 | 0.00 | 0.00 | 0.00 | 82 | 1022.6 |
| 20260902111404 | 72 | 295 | 0.0 | 3.0 | 0.00 | 0.00 | 0.00 | 83 | 1022.7 |
| 20260902110904 | 72 | 23 | 3.0 | 7.0 | 0.00 | 0.00 | 0.00 | 83 | 1022.7 |
| 20260902110403 | 72 | 63 | 3.0 | 6.0 | 0.00 | 0.00 | 0.00 | 83 | 1022.7 |
| 20260902105905 | 72 | 184 | 2.0 | 5.0 | 0.00 | 0.00 | 0.00 | 84 | 1022.8 |
| 20260902105404 | 71 | 70 | 1.0 | 3.0 | 0.00 | 0.00 | 0.00 | 85 | 1022.7 |
| 20260902104904 | 71 | 69 | 0.0 | 3.0 | 0.00 | 0.00 | 0.00 | 85 | 1022.7 |
| 20260902104403 | 71 | 64 | 2.0 | 5.0 | 0.00 | 0.00 | 0.00 | 86 | 1022.7 |
| 20260902103405 | 70 | 41 | 1.0 | 3.0 | 0.00 | 0.00 | 0.00 | 87 | 1022.8 |
| 20260902102906 | 70 | 39 | 2.0 | 3.0 | 0.00 | 0.00 | 0.00 | 88 | 1022.8 |
| 20260902102403 | 69 | 190 | 1.0 | 3.0 | 0.00 | 0.00 | 0.00 | 88 | 1022.8 |
| 20260902101904 | 69 | 246 | 1.0 | 3.0 | 0.00 | 0.00 | 0.00 | 88 | 1022.8 |
| 20260902101404 | 69 | 246 | 0.0 | 2.0 | 0.00 | 0.00 | 0.00 | 88 | 1022.7 |
| 20260902095904 | 69 | 246 | 0.0 | 2.0 | 0.00 | 0.00 | 0.00 | 89 | 1022.7 |
| 20260902095404 | 68 | 245 | 0.0 | 2.0 | 0.00 | 0.00 | 0.00 | 90 | 1022.7 |
| 20260902094904 | 68 | 245 | 1.0 | 2.0 | 0.00 | 0.00 | 0.00 | 90 | 1022.7 |
| 20260902094404 | 68 | 244 | 1.0 | 3.0 | 0.00 | 0.00 | 0.00 | 90 | 1022.7 |
| 20260902093904 | 68 | 287 | 1.0 | 3.0 | 0.00 | 0.00 | 0.00 | 91 | 1022.6 |
| 20260902093405 | 67 | 302 | 3.0 | 5.0 | 0.00 | 0.00 | 0.00 | 91 | 1022.6 |
| 20260902092904 | 68 | 266 | 1.0 | 3.0 | 0.00 | 0.00 | 0.00 | 92 | 1022.5 |
| 20260902092404 | 67 | 264 | 3.0 | 6.0 | 0.00 | 0.00 | 0.00 | 92 | 1022.4 |
| 20260902091904 | 67 | 286 | 0.0 | 3.0 | 0.00 | 0.00 | 0.00 | 93 | 1022.4 |
| 20260902091404 | 67 | 286 | 1.0 | 3.0 | 0.00 | 0.00 | 0.00 | 93 | 1022.4 |
| 20260902090904 | 67 | 267 | 1.0 | 3.0 | 0.00 | 0.00 | 0.00 | 93 | 1022.4 |
| 20260902090404 | 67 | 265 | 3.0 | 6.0 | 0.00 | 0.00 | 0.00 | 93 | 1022.4 |
| 20260902085404 | 66 | 248 | 2.0 | 6.0 | 0.00 | 0.00 | 0.00 | 93 | 1022.3 |
| 20260902084404 | 66 | 248 | 2.0 | 3.0 | 0.00 | 0.00 | 0.00 | 94 | 1022.2 |
| 20260902083404 | 67 | 268 | 3.0 | 6.0 | 0.00 | 0.00 | 0.00 | 93 | 1022.1 |
| 20260902082905 | 67 | 270 | 2.0 | 3.0 | 0.00 | 0.00 | 0.00 | 93 | 1022.0 |
| 20260902082404 | 67 | 300 | 0.0 | 2.0 | 0.00 | 0.00 | 0.00 | 93 | 1021.9 |
| 20260902081904 | 67 | 299 | 0.0 | 3.0 | 0.00 | 0.00 | 0.00 | 93 | 1021.9 |
| 20260902081404 | 67 | 340 | 0.0 | 3.0 | 0.00 | 0.00 | 0.00 | 94 | 1021.8 |
| 20260902080904 | 67 | 5 | 0.0 | 1.0 | 0.00 | 0.00 | 0.00 | 94 | 1021.8 |
| 20260902080404 | 67 | 5 | 0.0 | 2.0 | 0.00 | 0.00 | 0.00 | 94 | 1021.8 |
| 20260902075404 | 66 | 5 | 0.0 | 0.0 | 0.00 | 0.00 | 0.00 | 94 | 1021.8 |
| 20260902074904 | 66 | 5 | 0.0 | 0.0 | 0.00 | 0.00 | 0.00 | 95 | 1021.8 |
| 20260902074403 | 66 | 5 | 0.0 | 0.0 | 0.00 | 0.00 | 0.00 | 96 | 1021.7 |
| 20260902073404 | 65 | 5 | 0.0 | 0.0 | 0.00 | 0.00 | 0.00 | 96 | 1021.6 |
| 20260902072904 | 65 | 5 | 0.0 | 2.0 | 0.00 | 0.00 | 0.00 | 96 | 1021.6 |
| 20260902072404 | 65 | 5 | 2.0 | 3.0 | 0.00 | 0.00 | 0.00 | 96 | 1021.5 |
| 20260902071904 | 65 | 332 | 0.0 | 0.0 | 0.00 | 0.00 | 0.00 | 97 | 1021.4 |
| 20260902071404 | 65 | 325 | 0.0 | 0.0 | 0.00 | 0.00 | 0.00 | 97 | 1021.4 |
| 20260902070904 | 65 | 325 | 0.0 | 0.0 | 0.00 | 0.00 | 0.00 | 97 | 1021.3 |
| 20260902070404 | 65 | 325 | 0.0 | 0.0 | 0.00 | 0.00 | 0.00 | 97 | 1021.3 |
| 20260902065904 | 64 | 325 | 0.0 | 0.0 | 0.00 | 0.00 | 0.00 | 97 | 1021.4 |
| 20260902065404 | 64 | 325 | 0.0 | 0.0 | 0.00 | 0.00 | 0.00 | 97 | 1021.4 |
| 20260902064904 | 64 | 325 | 0.0 | 0.0 | 0.00 | 0.00 | 0.00 | 97 | 1021.3 |
| 20260902064404 | 64 | 325 | 0.0 | 0.0 | 0.00 | 0.00 | 0.00 | 97 | 1021.3 |
| 20260902063904 | 64 | 325 | 0.0 | 0.0 | 0.00 | 0.00 | 0.00 | 98 | 1021.3 |
| 20260902063404 | 64 | 325 | 0.0 | 0.0 | 0.00 | 0.00 | 0.00 | 98 | 1021.2 |
| 20260902062904 | 64 | 325 | 0.0 | 0.0 | 0.00 | 0.00 | 0.00 | 98 | 1021.2 |
| 20260902062405 | 64 | 325 | 0.0 | 0.0 | 0.00 | 0.00 | 0.00 | 98 | 1021.2 |
| 20260902061904 | 64 | 325 | 0.0 | 0.0 | 0.00 | 0.00 | 0.00 | 98 | 1021.1 |
| 20260902061404 | 64 | 325 | 0.0 | 0.0 | 0.00 | 0.00 | 0.00 | 98 | 1021.1 |
| 20260902060904 | 64 | 325 | 0.0 | 0.0 | 0.00 | 0.00 | 0.00 | 98 | 1021.1 |
| 20260902060404 | 64 | 325 | 0.0 | 0.0 | 0.00 | 0.00 | 0.00 | 98 | 1021.1 |
| 20260902055904 | 64 | 325 | 0.0 | 0.0 | 0.00 | 0.00 | 0.00 | 98 | 1021.2 |
| 20260902055404 | 64 | 325 | 0.0 | 0.0 | 0.00 | 0.00 | 0.00 | 98 | 1021.1 |
| 20260902054404 | 64 | 325 | 0.0 | 0.0 | 0.00 | 0.00 | 0.00 | 98 | 1021.0 |
| 20260902053904 | 64 | 325 | 0.0 | 0.0 | 0.00 | 0.00 | 0.00 | 98 | 1021.0 |
| 20260902053404 | 64 | 325 | 0.0 | 0.0 | 0.00 | 0.00 | 0.00 | 98 | 1021.0 |
| 20260902052904 | 64 | 325 | 0.0 | 0.0 | 0.00 | 0.00 | 0.00 | 98 | 1021.0 |
| 20260902052404 | 64 | 325 | 0.0 | 0.0 | 0.00 | 0.00 | 0.00 | 98 | 1020.9 |
| 20260902051904 | 64 | 325 | 0.0 | 0.0 | 0.00 | 0.00 | 0.00 | 98 | 1020.9 |
| 20260902050905 | 64 | 325 | 0.0 | 0.0 | 0.00 | 0.00 | 0.00 | 98 | 1020.9 |
| 20260902050404 | 64 | 325 | 0.0 | 0.0 | 0.00 | 0.00 | 0.00 | 98 | 1020.8 |
| 20260902045904 | 64 | 325 | 0.0 | 0.0 | 0.00 | 0.00 | 0.00 | 98 | 1020.9 |
| 20260902044904 | 64 | 325 | 0.0 | 0.0 | 0.00 | 0.00 | 0.00 | 98 | 1020.9 |
| 20260902044404 | 64 | 325 | 0.0 | 0.0 | 0.00 | 0.00 | 0.00 | 98 | 1020.9 |
| 20260902043404 | 64 | 325 | 0.0 | 0.0 | 0.00 | 0.00 | 0.00 | 98 | 1021.0 |
| 20260902042904 | 64 | 325 | 0.0 | 0.0 | 0.00 | 0.00 | 0.00 | 98 | 1020.9 |
| 20260902042404 | 64 | 325 | 0.0 | 0.0 | 0.00 | 0.00 | 0.00 | 98 | 1020.9 |
| 20260902041904 | 64 | 325 | 0.0 | 0.0 | 0.00 | 0.00 | 0.00 | 98 | 1021.0 |
| 20260902041404 | 64 | 325 | 0.0 | 0.0 | 0.00 | 0.00 | 0.00 | 98 | 1021.0 |
| 20260902040904 | 64 | 325 | 0.0 | 0.0 | 0.00 | 0.00 | 0.00 | 98 | 1021.0 |
| 20260902040404 | 64 | 325 | 0.0 | 0.0 | 0.00 | 0.00 | 0.00 | 98 | 1021.0 |
| 20260902034904 | 64 | 325 | 0.0 | 0.0 | 0.00 | 0.00 | 0.00 | 98 | 1021.0 |
| 20260902034404 | 64 | 325 | 0.0 | 0.0 | 0.00 | 0.00 | 0.00 | 98 | 1021.0 |
| 20260902033904 | 64 | 325 | 0.0 | 0.0 | 0.00 | 0.00 | 0.00 | 98 | 1021.0 |
| 20260902033404 | 64 | 325 | 0.0 | 0.0 | 0.00 | 0.00 | 0.00 | 98 | 1021.1 |
| 20260902032904 | 64 | 325 | 0.0 | 0.0 | 0.00 | 0.00 | 0.00 | 98 | 1021.1 |
| 20260902032404 | 64 | 323 | 0.0 | 0.0 | 0.00 | 0.00 | 0.00 | 97 | 1021.1 |
| 20260902031903 | 64 | 323 | 0.0 | 0.0 | 0.00 | 0.00 | 0.00 | 97 | 1021.1 |
| 20260902031403 | 64 | 323 | 0.0 | 0.0 | 0.00 | 0.00 | 0.00 | 97 | 1021.1 |
| 20260902030404 | 64 | 322 | 0.0 | 0.0 | 0.00 | 0.00 | 0.00 | 97 | 1021.0 |
| 20260902025905 | 64 | 322 | 0.0 | 0.0 | 0.00 | 0.00 | 0.00 | 97 | 1021.0 |
| 20260902024904 | 64 | 307 | 0.0 | 0.0 | 0.00 | 0.00 | 0.00 | 97 | 1021.0 |
| 20260902024404 | 64 | 300 | 0.0 | 0.0 | 0.00 | 0.00 | 0.00 | 97 | 1020.9 |
| 20260902023904 | 64 | 300 | 0.0 | 0.0 | 0.00 | 0.00 | 0.00 | 97 | 1021.0 |
| 20260902023404 | 65 | 300 | 0.0 | 0.0 | 0.00 | 0.00 | 0.00 | 97 | 1020.9 |
| 20260902022404 | 65 | 300 | 0.0 | 0.0 | 0.00 | 0.00 | 0.00 | 97 | 1020.9 |
| 20260902021904 | 65 | 300 | 0.0 | 0.0 | 0.00 | 0.00 | 0.00 | 96 | 1020.8 |
| 20260902021405 | 65 | 300 | 0.0 | 0.0 | 0.00 | 0.00 | 0.00 | 96 | 1020.8 |
| 20260902020904 | 65 | 300 | 0.0 | 2.0 | 0.00 | 0.00 | 0.00 | 96 | 1020.8 |
| 20260902015904 | 65 | 313 | 1.0 | 2.0 | 0.00 | 0.00 | 0.00 | 96 | 1020.8 |
| 20260902015404 | 65 | 331 | 0.0 | 3.0 | 0.00 | 0.00 | 0.00 | 96 | 1020.8 |
| 20260902014904 | 65 | 29 | 0.0 | 0.0 | 0.00 | 0.00 | 0.00 | 96 | 1020.8 |
| 20260902013904 | 65 | 29 | 0.0 | 0.0 | 0.00 | 0.00 | 0.00 | 96 | 1020.8 |
| 20260902013404 | 65 | 29 | 0.0 | 0.0 | 0.00 | 0.00 | 0.00 | 96 | 1020.9 |
| 20260902012904 | 65 | 29 | 0.0 | 1.0 | 0.00 | 0.00 | 0.00 | 96 | 1021.0 |
| 20260902011904 | 66 | 29 | 0.0 | 0.0 | 0.00 | 0.00 | 0.00 | 96 | 1021.0 |
| 20260902011404 | 66 | 29 | 0.0 | 0.0 | 0.00 | 0.00 | 0.00 | 96 | 1021.0 |
| 20260902010904 | 66 | 30 | 0.0 | 2.0 | 0.00 | 0.00 | 0.00 | 96 | 1021.0 |
| 20260902010404 | 66 | 30 | 0.0 | 0.0 | 0.00 | 0.00 | 0.00 | 95 | 1021.0 |
| 20260902005404 | 66 | 30 | 0.0 | 2.0 | 0.00 | 0.00 | 0.00 | 96 | 1021.1 |
| 20260902004904 | 66 | 30 | 0.0 | 1.0 | 0.00 | 0.00 | 0.00 | 96 | 1021.1 |
| 20260902004404 | 66 | 30 | 0.0 | 2.0 | 0.00 | 0.00 | 0.00 | 96 | 1021.0 |
| 20260902003904 | 66 | 30 | 0.0 | 0.0 | 0.00 | 0.00 | 0.00 | 96 | 1021.0 |
| 20260902003404 | 66 | 30 | 0.0 | 2.0 | 0.00 | 0.00 | 0.00 | 96 | 1021.0 |
| 20260902002903 | 66 | 30 | 0.0 | 0.0 | 0.00 | 0.00 | 0.00 | 96 | 1021.1 |
| 20260902002404 | 66 | 30 | 0.0 | 1.0 | 0.00 | 0.00 | 0.00 | 96 | 1021.1 |
| 20260902001904 | 66 | 30 | 0.0 | 0.0 | 0.00 | 0.00 | 0.00 | 96 | 1021.1 |
| 20260902001404 | 66 | 30 | 0.0 | 0.0 | 0.00 | 0.00 | 0.00 | 96 | 1021.2 |
| 20260902000904 | 66 | 30 | 0.0 | 2.0 | 0.00 | 0.00 | 0.00 | 95 | 1021.1 |
| 20260902000406 | 66 | 30 | 1.0 | 2.0 | 0.00 | 0.00 | 0.00 | 95 | 1021.2 |
| 20260901235904 | 66 | 30 | 0.0 | 1.0 | 0.00 | 0.00 | 0.00 | 95 | 1021.2 |
| 20260901235405 | 66 | 30 | 0.0 | 1.0 | 0.00 | 0.00 | 0.00 | 95 | 1021.2 |
| 20260901234904 | 66 | 29 | 0.0 | 2.0 | 0.00 | 0.00 | 0.00 | 95 | 1021.2 |
| 20260901234404 | 66 | 29 | 2.0 | 3.0 | 0.00 | 0.00 | 0.00 | 95 | 1021.3 |
| 20260901233904 | 66 | 30 | 1.0 | 2.0 | 0.00 | 0.00 | 0.00 | 95 | 1021.3 |
| 20260901232404 | 66 | 29 | 0.0 | 2.0 | 0.00 | 0.00 | 0.00 | 95 | 1021.3 |
| 20260901231905 | 66 | 28 | 0.0 | 2.0 | 0.00 | 0.00 | 0.00 | 95 | 1021.3 |
| 20260901231404 | 66 | 28 | 0.0 | 1.0 | 0.00 | 0.00 | 0.00 | 95 | 1021.3 |
| 20260901230904 | 66 | 28 | 0.0 | 2.0 | 0.00 | 0.00 | 0.00 | 95 | 1021.2 |
| 20260901225904 | 66 | 28 | 1.0 | 3.0 | 0.00 | 0.00 | 0.00 | 95 | 1021.1 |
| 20260901225404 | 66 | 26 | 1.0 | 3.0 | 0.00 | 0.00 | 0.00 | 94 | 1021.1 |
| 20260901224914 | 66 | 26 | 2.0 | 5.0 | 0.00 | 0.00 | 0.00 | 94 | 1021.2 |
| 20260901223906 | 66 | 25 | 3.0 | 9.0 | 0.00 | 0.00 | 0.00 | 94 | 1021.3 |
| 20260901222914 | 66 | 30 | 1.0 | 3.0 | 0.00 | 0.00 | 0.00 | 94 | 1021.3 |
| 20260901222404 | 66 | 36 | 2.0 | 3.0 | 0.00 | 0.00 | 0.00 | 94 | 1021.2 |
| 20260901221404 | 66 | 42 | 1.0 | 6.0 | 0.00 | 0.00 | 0.00 | 94 | 1021.3 |
| 20260901220903 | 66 | 41 | 3.0 | 7.0 | 0.00 | 0.00 | 0.00 | 93 | 1021.3 |
| 20260901220404 | 66 | 47 | 2.0 | 3.0 | 0.00 | 0.00 | 0.00 | 93 | 1021.2 |
| 20260901215904 | 66 | 51 | 1.0 | 3.0 | 0.00 | 0.00 | 0.00 | 93 | 1021.3 |
| 20260901215405 | 67 | 67 | 2.0 | 5.0 | 0.00 | 0.00 | 0.00 | 93 | 1021.3 |
| 20260901214904 | 67 | 46 | 0.0 | 3.0 | 0.00 | 0.00 | 0.00 | 93 | 1021.3 |
| 20260901214404 | 67 | 51 | 1.0 | 6.0 | 0.00 | 0.00 | 0.00 | 93 | 1021.2 |
| 20260901213404 | 67 | 44 | 0.0 | 2.0 | 0.00 | 0.00 | 0.00 | 93 | 1021.2 |
| 20260901212905 | 66 | 61 | 0.0 | 2.0 | 0.00 | 0.00 | 0.00 | 93 | 1021.2 |
| 20260901212404 | 67 | 61 | 1.0 | 3.0 | 0.00 | 0.00 | 0.00 | 93 | 1021.2 |
| 20260901211904 | 66 | 62 | 1.0 | 2.0 | 0.00 | 0.00 | 0.00 | 93 | 1021.2 |
| 20260901211404 | 66 | 61 | 0.0 | 2.0 | 0.00 | 0.00 | 0.00 | 93 | 1021.2 |
| 20260901210904 | 67 | 61 | 0.0 | 3.0 | 0.00 | 0.00 | 0.00 | 93 | 1021.2 |
| 20260901210404 | 67 | 61 | 1.0 | 3.0 | 0.00 | 0.00 | 0.00 | 93 | 1021.1 |
| 20260901205904 | 67 | 58 | 1.0 | 3.0 | 0.00 | 0.00 | 0.00 | 92 | 1021.1 |
| 20260901205405 | 67 | 57 | 3.0 | 3.0 | 0.00 | 0.00 | 0.00 | 92 | 1021.1 |
| 20260901204904 | 67 | 55 | 0.0 | 3.0 | 0.00 | 0.00 | 0.00 | 92 | 1021.2 |
| 20260901204404 | 67 | 72 | 0.0 | 3.0 | 0.00 | 0.00 | 0.00 | 92 | 1021.1 |
| 20260901203904 | 67 | 67 | 1.0 | 5.0 | 0.00 | 0.00 | 0.00 | 92 | 1021.1 |
| 20260901203404 | 67 | 67 | 4.0 | 6.0 | 0.00 | 0.00 | 0.00 | 92 | 1021.0 |
| 20260901202404 | 67 | 42 | 2.0 | 5.0 | 0.00 | 0.00 | 0.00 | 92 | 1021.2 |
| 20260901201904 | 67 | 66 | 2.0 | 5.0 | 0.00 | 0.00 | 0.00 | 92 | 1021.1 |
| 20260901201404 | 67 | 5 | 1.0 | 5.0 | 0.00 | 0.00 | 0.00 | 91 | 1021.1 |
| 20260901200904 | 67 | 29 | 2.0 | 5.0 | 0.00 | 0.00 | 0.00 | 91 | 1021.1 |
| 20260901200405 | 67 | 355 | 3.0 | 6.0 | 0.00 | 0.00 | 0.00 | 91 | 1021.1 |
| 20260901195904 | 67 | 348 | 2.0 | 3.0 | 0.00 | 0.00 | 0.00 | 91 | 1021.1 |
| 20260901195404 | 67 | 17 | 2.0 | 8.0 | 0.00 | 0.00 | 0.00 | 91 | 1021.1 |
| 20260901194904 | 67 | 29 | 2.0 | 7.0 | 0.00 | 0.00 | 0.00 | 91 | 1021.0 |
| 20260901193904 | 67 | 40 | 2.0 | 5.0 | 0.00 | 0.00 | 0.00 | 91 | 1020.8 |
| 20260901193404 | 67 | 29 | 1.0 | 5.0 | 0.00 | 0.00 | 0.00 | 91 | 1020.7 |
| 20260901192904 | 67 | 27 | 1.0 | 3.0 | 0.00 | 0.00 | 0.00 | 91 | 1020.7 |
| 20260901192404 | 67 | 28 | 2.0 | 5.0 | 0.00 | 0.00 | 0.00 | 91 | 1020.6 |
| 20260901191905 | 67 | 23 | 3.0 | 5.0 | 0.00 | 0.00 | 0.00 | 91 | 1020.6 |
| 20260901191404 | 68 | 14 | 3.0 | 9.0 | 0.00 | 0.00 | 0.00 | 90 | 1020.6 |
| 20260901190405 | 68 | 1 | 3.0 | 6.0 | 0.00 | 0.00 | 0.00 | 90 | 1020.5 |
| 20260901185904 | 68 | 26 | 4.0 | 7.0 | 0.00 | 0.00 | 0.00 | 90 | 1020.5 |
| 20260901185405 | 68 | 37 | 2.0 | 7.0 | 0.00 | 0.00 | 0.00 | 90 | 1020.5 |
| 20260901184905 | 68 | 36 | 5.0 | 9.0 | 0.00 | 0.00 | 0.00 | 90 | 1020.6 |
| 20260901184404 | 68 | 15 | 2.0 | 9.0 | 0.00 | 0.00 | 0.00 | 90 | 1020.6 |
| 20260901183904 | 68 | 38 | 5.0 | 12.0 | 0.00 | 0.00 | 0.00 | 90 | 1020.6 |
| 20260901183404 | 68 | 26 | 6.0 | 12.0 | 0.00 | 0.00 | 0.00 | 90 | 1020.5 |
| 20260901182904 | 68 | 25 | 9.0 | 12.0 | 0.00 | 0.00 | 0.00 | 90 | 1020.5 |
| 20260901182404 | 68 | 19 | 6.0 | 13.0 | 0.00 | 0.00 | 0.00 | 90 | 1020.6 |
| 20260901181904 | 68 | 8 | 9.0 | 13.0 | 0.00 | 0.00 | 0.00 | 90 | 1020.7 |
| 20260901181404 | 68 | 39 | 4.0 | 13.0 | 0.00 | 0.00 | 0.00 | 90 | 1020.6 |
| 20260901180904 | 68 | 15 | 6.0 | 13.0 | 0.00 | 0.00 | 0.00 | 90 | 1020.5 |
| 20260901180404 | 68 | 15 | 7.0 | 15.0 | 0.00 | 0.00 | 0.00 | 90 | 1020.4 |
| 20260901175404 | 69 | 9 | 10.0 | 15.0 | 0.00 | 0.00 | 0.00 | 89 | 1020.5 |
| 20260901174904 | 69 | 22 | 8.0 | 15.0 | 0.00 | 0.00 | 0.00 | 89 | 1020.5 |
| 20260901174404 | 69 | 18 | 11.0 | 16.0 | 0.00 | 0.00 | 0.00 | 88 | 1020.5 |
| 20260901173904 | 69 | 15 | 9.0 | 15.0 | 0.00 | 0.00 | 0.00 | 88 | 1020.3 |
| 20260901173404 | 69 | 26 | 5.0 | 16.0 | 0.00 | 0.00 | 0.00 | 88 | 1020.4 |
| 20260901172903 | 69 | 34 | 11.0 | 16.0 | 0.00 | 0.00 | 0.00 | 88 | 1020.3 |
| 20260901172405 | 69 | 26 | 9.0 | 17.0 | 0.00 | 0.00 | 0.00 | 87 | 1020.3 |
| 20260901171904 | 69 | 36 | 11.0 | 20.0 | 0.00 | 0.00 | 0.00 | 87 | 1020.2 |
| 20260901171404 | 69 | 19 | 9.0 | 18.0 | 0.00 | 0.00 | 0.00 | 87 | 1020.2 |
| 20260901170905 | 70 | 38 | 10.0 | 18.0 | 0.00 | 0.00 | 0.00 | 86 | 1020.2 |
| 20260901170404 | 70 | 19 | 12.0 | 18.0 | 0.00 | 0.00 | 0.00 | 86 | 1020.1 |
| 20260901165904 | 70 | 21 | 7.0 | 16.0 | 0.00 | 0.00 | 0.00 | 86 | 1019.9 |
| 20260901164904 | 71 | 17 | 8.0 | 16.0 | 0.00 | 0.00 | 0.00 | 85 | 1019.8 |
| 20260901164404 | 71 | 5 | 8.0 | 16.0 | 0.00 | 0.00 | 0.00 | 85 | 1019.7 |
| 20260901162904 | 71 | 31 | 10.0 | 17.0 | 0.00 | 0.00 | 0.00 | 85 | 1019.5 |
| 20260901162404 | 71 | 16 | 9.0 | 17.0 | 0.00 | 0.00 | 0.00 | 85 | 1019.5 |
| 20260901161904 | 71 | 1 | 11.0 | 20.0 | 0.00 | 0.00 | 0.00 | 85 | 1019.5 |
| 20260901161404 | 71 | 4 | 13.0 | 22.0 | 0.00 | 0.00 | 0.00 | 84 | 1019.4 |
| 20260901160904 | 72 | 6 | 10.0 | 18.0 | 0.00 | 0.00 | 0.00 | 83 | 1019.4 |
| 20260901160404 | 71 | 6 | 12.0 | 21.0 | 0.00 | 0.00 | 0.00 | 83 | 1019.2 |
| 20260901155904 | 72 | 25 | 10.0 | 15.0 | 0.00 | 0.00 | 0.00 | 83 | 1019.1 |
| 20260901155404 | 72 | 17 | 12.0 | 18.0 | 0.00 | 0.00 | 0.00 | 82 | 1019.1 |
| 20260901154904 | 72 | 13 | 6.0 | 18.0 | 0.00 | 0.00 | 0.00 | 83 | 1019.0 |
| 20260901154404 | 72 | 14 | 9.0 | 18.0 | 0.00 | 0.00 | 0.00 | 82 | 1019.0 |
| 20260901153904 | 72 | 349 | 10.0 | 14.0 | 0.00 | 0.00 | 0.00 | 82 | 1018.9 |
| 20260901153404 | 72 | 11 | 9.0 | 16.0 | 0.00 | 0.00 | 0.00 | 81 | 1018.9 |
| 20260901152904 | 72 | 14 | 9.0 | 17.0 | 0.00 | 0.00 | 0.00 | 82 | 1018.8 |
| 20260901152404 | 72 | 18 | 12.0 | 20.0 | 0.00 | 0.00 | 0.00 | 81 | 1018.8 |
| 20260901151904 | 72 | 14 | 10.0 | 15.0 | 0.00 | 0.00 | 0.00 | 81 | 1018.8 |
| 20260901151404 | 73 | 8 | 9.0 | 17.0 | 0.00 | 0.00 | 0.00 | 80 | 1018.7 |
| 20260901150904 | 73 | 39 | 6.0 | 14.0 | 0.00 | 0.00 | 0.00 | 80 | 1018.8 |
| 20260901150404 | 73 | 22 | 12.0 | 18.0 | 0.00 | 0.00 | 0.00 | 78 | 1018.9 |
| 20260901145904 | 74 | 24 | 10.0 | 17.0 | 0.00 | 0.00 | 0.00 | 76 | 1018.8 |
| 20260901145403 | 74 | 7 | 6.0 | 14.0 | 0.00 | 0.00 | 0.00 | 77 | 1018.8 |
| 20260901144904 | 73 | 350 | 6.0 | 14.0 | 0.00 | 0.00 | 0.00 | 76 | 1018.9 |
| 20260901144404 | 74 | 0 | 6.0 | 15.0 | 0.00 | 0.00 | 0.00 | 75 | 1018.9 |
| 20260901143404 | 74 | 326 | 3.0 | 12.0 | 0.00 | 0.00 | 0.00 | 76 | 1018.8 |
| 20260901142904 | 74 | 44 | 10.0 | 15.0 | 0.00 | 0.00 | 0.00 | 75 | 1018.9 |
| 20260901142404 | 74 | 358 | 3.0 | 12.0 | 0.00 | 0.00 | 0.00 | 76 | 1018.9 |
| 20260901141904 | 73 | 308 | 3.0 | 13.0 | 0.00 | 0.00 | 0.00 | 76 | 1018.9 |
| 20260901141404 | 73 | 79 | 4.0 | 14.0 | 0.00 | 0.00 | 0.00 | 76 | 1018.8 |
| 20260901135903 | 73 | 352 | 6.0 | 12.0 | 0.00 | 0.00 | 0.00 | 75 | 1018.8 |
| 20260901135405 | 73 | 34 | 4.0 | 9.0 | 0.00 | 0.00 | 0.00 | 76 | 1018.9 |
| 20260901134904 | 73 | 356 | 2.0 | 13.0 | 0.00 | 0.00 | 0.00 | 75 | 1019.1 |
| 20260901134404 | 73 | 13 | 6.0 | 13.0 | 0.00 | 0.00 | 0.00 | 75 | 1019.2 |
| 20260901133904 | 73 | 169 | 2.0 | 5.0 | 0.00 | 0.00 | 0.00 | 75 | 1019.1 |
| 20260901133404 | 73 | 46 | 2.0 | 7.0 | 0.00 | 0.00 | 0.00 | 75 | 1019.2 |
| 20260901132904 | 73 | 16 | 7.0 | 12.0 | 0.00 | 0.00 | 0.00 | 76 | 1019.3 |
| 20260901132404 | 73 | 27 | 5.0 | 12.0 | 0.00 | 0.00 | 0.00 | 74 | 1019.2 |
| 20260901131904 | 74 | 20 | 1.0 | 6.0 | 0.00 | 0.00 | 0.00 | 72 | 1019.2 |
| 20260901131404 | 73 | 88 | 1.0 | 3.0 | 0.00 | 0.00 | 0.00 | 72 | 1019.3 |
| 20260901130904 | 73 | 109 | 1.0 | 5.0 | 0.00 | 0.00 | 0.00 | 73 | 1019.5 |